星链-35469(STARLINK-35469)

导读 | 豆包AI

STARLINK-35469是美国于2025年10月3日发射的星链系列卫星,隶属于SpaceX公司打造的星链卫星互联网星座项目。该卫星延续星链项目设计,旨在为全球提供低延迟、高速率的卫星互联网服务,补充完善星链星座的全球覆盖能力,进一步推进星链星座部署进程,服务民用与相关商业网络需求。

基本信息
目录编号:
65863
目录名称:
STARLINK-35469
国际标识:
2025-223K
轨道中心:
EARTH
卫星名称:
星链-35469
卫星全名:
星链-35469(STARLINK-35469)
卫星状态:
在轨 (已飞行162 天)
发射日期:
2025-10-03 UTC
国别 :
美国 (US)
星等 :
--
轨道信息
数据来源 国际轨道数据
星历时间: 2026-03-14T03:35:23+0800
13小时前
查看轨道信息
半长轴: 6853.356km
偏心率: 0.0001512
轨道倾角: 53.159°
近地点辐角 99.295°
升交点赤经 275.279°
平近点角 260.822°
近地点: 474.182km
远地点: 476.256km
周期: 94.105分钟
每日圈数: 15.30199
详细信息
固有亮度:
5
最大亮度:
2.5
卫星平台:
Starlink V1.0
覆盖范围:
全球
运营商:
太空探索技术公司
运营商所在国:
美国
制造商(研发单位):
太空探索技术公司
制造商所在国:
美国
使用方式:
暂无
卫星简介
Starlink 计划是 SpaceX 推出的全球卫星互联网项目,通过发射低轨道卫星,为全球尤其是偏远地区提供高速、低延迟的互联网服务。自 2019 年起,Starlink 已部署数千颗卫星,旨在缩小全球数字鸿沟,推动互联网普及。该项目还为军事、航空等行业提供通信支持,带来广泛经济效益。
2D轨道图
3D轨道图
轨道高度分析图
轨道倾角分析图
轨道综合分析图
查看轨道综合分析图